Regional Weather Roundup
Issued by NWS State College, PA

Home | Current Version | Previous Version | Graphics & Text | Print | Product List | Glossary On
Versions: 1 2 3 4 5 6 7 8 9 10 11 12 13 14 15 16 17 18 19 20 21 22 23 24 25 26 27 28 29 30 31 32 33 34 35 36 37 38 39 40 41 42 43 44 45 46 47 48 49 50
000
ASUS41 KCTP 201410
RWRCTP

REGIONAL WEATHER ROUNDUP
NATIONAL WEATHER SERVICE STATE COLLEGE PA
1000 AM EDT WED AUG 20 2014

Note: "fair" indicates few or no clouds below 12,000 feet with no
significant weather and/or obstructions to visibility.

* = STATION THAT DOES NOT REPORT PRECIPITATION /E.G. RAIN...SNOW...ETC/
    THUNDER OR FOG.

PAZ002>004-007>009-013>016-020>023-029>032-201500-
WESTERN PENNSYLVANIA

CITY           SKY/WX    TMP DP  RH WIND       PRES   REMARKS
ERIE           CLOUDY    68  63  84 S14       29.89R
MEADVILLE      LGT RAIN  65  63  93 S7        29.94R FOG
FRANKLIN*      CLOUDY    63  61  94 S8        29.97S
NEW CASTLE     NOT AVBL
BEAVER COUNTY  CLOUDY    64  64 100 SE7       29.95S FOG
BUTLER*        CLOUDY    64  61  88 SE3       29.98F
PITTSBURGH INT LGT RAIN  65  65 100 S9        29.97S
PITTSBURGH     LGT RAIN  64  63  94 S9        29.98S FOG
INDIANA*       CLOUDY    66  64  94 NW6       30.04R
LATROBE        TSTM      66  66 100 NW7       30.02R FOG
WASHINGTON CO* CLOUDY    64  63  94 SE3       29.98F
$$

PAZ004>006-010>012-017>019-024>028-033>037-041-042-045-046-049>053-201500-
CENTRAL PENNSYLVANIA

CITY           SKY/WX    TMP DP  RH WIND       PRES   REMARKS
BRADFORD       CLOUDY    68  61  78 VRB5      29.99R
DUBOIS         LGT RAIN  66  64  93 S3        29.99R
CLEARFIELD     RAIN      65  65 100 S6        30.00R FOG
JOHNSTOWN      RAIN      65  63  93 N3        30.02S FOG
ALTOONA        CLOUDY    72  69  90 S7        30.00R
STATE COLLEGE  CLOUDY    70  66  88 CALM      29.98R FOG
WILLIAMSPORT   CLOUDY    72  64  76 E8        29.96R
SELINSGROVE    CLOUDY    73  67  81 CALM      29.98S HAZE
FT INDIANTOWN  CLOUDY    72  67  84 CALM      30.01R
CAPITAL CITY   CLOUDY    73  63  70 VRB6      29.99R
HARRISBURG     CLOUDY    74  65  73 SE5       29.98R
YORK           CLOUDY    74  65  73 VRB5      29.99R
$$

PAZ038>040-043-044-047-048-054-055-060>062-067>071-201500-
EASTERN PENNSYLVANIA

CITY           SKY/WX    TMP DP  RH WIND       PRES   REMARKS
SCRANTON       SUNNY     75  62  64 SW8       29.99R
MOUNT POCONO   SUNNY     70  60  70 S8        30.04R
ALLENTOWN      SUNNY     76  64  66 VRB5      30.01R
QUAKERTOWN*    MOSUNNY   75  66  73 MISG      30.02R
READING        CLOUDY    77  63  61 S5        29.99R
LANCASTER      PTSUNNY   74  61  63 S6        30.00R
COATESVILLE    MOSUNNY   73  66  78 S3        30.03R
POTTSTOWN      MOSUNNY   75  65  70 S5        30.02R
BLUE BELL      PTSUNNY   77  66  69 CALM      30.00R
DOYLESTOWN     CLOUDY    73  64  73 VRB5      30.01R
WILLOW GROVE   NOT AVBL
NORTH PHILA    CLOUDY    76  63  64 S3        30.02R
PHILADELPHIA   PTSUNNY   76  63  64 CALM      30.01R
$$


USA.gov is the U.S. government's official web portal to all federal, state and local government web resources and services.